User: anonymous   Login
Location: Unspecified
(0.0000°N, 0.0000°E)
Time: 12:56:58
(UTC+00:00)
Language:

Cosmos 1726 - Orbit

View from above orbital plane
View from above orbital plane
View from above satellite
View from above satellite

Ground track
Ground track

The orbit data is extracted from the following two-line orbital elements,

1 16495U 86006A   18202.61495926 +.00000749 +00000-0 +29468-4 0  9993
2 16495 082.4722 030.3000 0011751 230.0398 129.9807 15.23982426776893
Epoch (UTC): 21 July 2018 14:45:32
Eccentricity: 0.0011751
inclination: 82.4722°
perigee height: 486 km
apogee height: 502 km
right ascension of ascending node: 30.3000°
argument of perigee: 230.0398°
revolutions per day: 15.23982426
mean anomaly at epoch: 129.9807°
orbit number at epoch: 77689

The dashed part of the orbit path shows where the satellite is in the earth's shadow,  

DLR